{"data":{"norad_id":67280,"intl_designator":"2025-313AJ","name":"2025-313AJ","alt_names":[],"object_type":"PAYLOAD","status":"ACTIVE","operator":null,"country":"TBD","launch_date":"2025-12-28","launch_site_code":"VOSTO","launch_vehicle":null,"mission":null,"orbit_class":"UNKNOWN","rcs_meters":null,"size_class":null,"mass_kg":null,"dimensions":null,"purposes":[],"wikipedia_slug":null,"has_3d_model":false,"image_url":null,"decayed_at":null,"tle_current":{"epoch":"2026-09-20T22:46:25.967424Z","epoch_age_seconds":64255,"freshness":"FRESH","line1":"1 67280U 25313AJ  26263.94891166  .00003156  00000+0  13610-3 0  9998","line2":"2 67280  97.3918 337.2358 0013609  31.7688 328.4367 15.23209638 40528","mean_motion":15.23209638,"eccentricity":0.0013609,"inclination_deg":97.3918,"raan_deg":337.2358,"arg_perigee_deg":31.7688,"mean_anomaly_deg":328.4367,"bstar":0.0001361,"rev_number":4052,"period_min":94.537216944789,"perigee_km":486.8115715205,"apogee_km":505.52205163485,"semimajor_km":6874.3038115777,"source":"CELESTRAK","updated_at":"2026-09-21T09:00:16.546718Z"}}}